Location: Fornova de Taro
(44.7000°N, 10.1000°E)
Time: 00:00:50
(UTC+00:00)

ATLAS CENTAUR R/B - Pass Details

Date: 26 May 2022
Orbit: 443 x 688 km, 64.6° (Epoch: 07 June)

Event Time Altitude Azimuth Distance (km) Brightness Sun altitude
Rises 00:09:09 0° 312° (NW) 3,042 5.5 -23.1°
Reaches altitude 10° 00:12:04 10° 295° (WNW) 2,099 4.4 -23.0°
Enters shadow 00:14:00 17° 274° (W) 1,653 3.6 -22.9°
